| time (UTC) | temp F | wind direction | speed MPH | gust MPH | rain 1hr in | rain 24hr in | rain mn in | humidity % | barometer mb |
| 20260503004336 | 65 | 219 | 11.0 | 11.0 | 0.00 | 0.00 | 0.00 | 32 | 1016.7 |
| 20260503003834 | 65 | 229 | 7.0 | 9.0 | 0.00 | 0.00 | 0.00 | 32 | 1016.8 |
| 20260503003330 | 65 | 240 | 7.0 | 11.0 | 0.00 | 0.00 | 0.00 | 32 | 1016.6 |
| 20260503002827 | 65 | 93 | 0.0 | 14.0 | 0.00 | 0.00 | 0.00 | 31 | 1016.8 |
| 20260503002324 | 65 | 215 | 11.0 | 12.0 | 0.00 | 0.00 | 0.00 | 31 | 1016.8 |
| 20260503001821 | 65 | 246 | 11.0 | 13.0 | 0.00 | 0.00 | 0.00 | 32 | 1016.7 |
| 20260503001317 | 65 | 242 | 12.0 | 17.0 | 0.00 | 0.00 | 0.00 | 31 | 1017.0 |
| 20260503000815 | 66 | 240 | 15.0 | 18.0 | 0.00 | 0.00 | 0.00 | 32 | 1017.0 |
| 20260503000312 | 66 | 237 | 18.0 | 18.0 | 0.00 | 0.00 | 0.00 | 32 | 1017.0 |
| 20260502235809 | 66 | 231 | 15.0 | 17.0 | 0.00 | 0.00 | 0.00 | 32 | 1016.8 |
| 20260502235306 | 66 | 262 | 11.0 | 16.0 | 0.00 | 0.00 | 0.00 | 32 | 1016.8 |
| 20260502234803 | 66 | 315 | 10.0 | 12.0 | 0.00 | 0.00 | 0.00 | 31 | 1016.8 |
| 20260502234300 | 66 | 242 | 9.0 | 15.0 | 0.00 | 0.00 | 0.00 | 31 | 1016.7 |
| 20260502233756 | 66 | 244 | 11.0 | 13.0 | 0.00 | 0.00 | 0.00 | 31 | 1017.0 |
| 20260502233253 | 66 | 219 | 11.0 | 15.0 | 0.00 | 0.00 | 0.00 | 32 | 1016.7 |
| 20260502232749 | 67 | 244 | 16.0 | 18.0 | 0.00 | 0.00 | 0.00 | 31 | 1016.8 |
| 20260502232246 | 66 | 244 | 8.0 | 16.0 | 0.00 | 0.00 | 0.00 | 32 | 1016.7 |
| 20260502231743 | 66 | 282 | 10.0 | 17.0 | 0.00 | 0.00 | 0.00 | 32 | 1017.0 |
| 20260502231240 | 66 | 192 | 6.0 | 11.0 | 0.00 | 0.00 | 0.00 | 31 | 1016.8 |
| 20260502230739 | 66 | 226 | 14.0 | 18.0 | 0.00 | 0.00 | 0.00 | 32 | 1016.8 |
| 20260502230237 | 65 | 115 | 2.0 | 22.0 | 0.00 | 0.00 | 0.00 | 33 | 1016.8 |
| 20260502225733 | 66 | 268 | 13.0 | 18.0 | 0.00 | 0.00 | 0.00 | 32 | 1017.0 |
| 20260502225230 | 64 | 261 | 8.0 | 10.0 | 0.00 | 0.00 | 0.00 | 33 | 1017.1 |
| 20260502224726 | 65 | 249 | 7.0 | 19.0 | 0.00 | 0.00 | 0.00 | 32 | 1017.3 |
| 20260502224223 | 66 | 272 | 12.0 | 17.0 | 0.00 | 0.00 | 0.00 | 32 | 1017.0 |
| 20260502223720 | 66 | 254 | 13.0 | 16.0 | 0.00 | 0.00 | 0.00 | 31 | 1017.2 |
| 20260502223218 | 66 | 357 | 3.0 | 9.0 | 0.00 | 0.00 | 0.00 | 31 | 1017.3 |
| 20260502222716 | 65 | 267 | 8.0 | 13.0 | 0.00 | 0.00 | 0.00 | 31 | 1017.3 |
| 20260502222212 | 65 | 247 | 7.0 | 11.0 | 0.00 | 0.00 | 0.00 | 32 | 1017.3 |
| 20260502221708 | 65 | 150 | 9.0 | 11.0 | 0.00 | 0.00 | 0.00 | 32 | 1017.3 |
| 20260502221205 | 65 | 354 | 2.0 | 3.0 | 0.00 | 0.00 | 0.00 | 32 | 1017.4 |
| 20260502220701 | 64 | 0 | 3.0 | 4.0 | 0.00 | 0.00 | 0.00 | 32 | 1017.5 |
| 20260502220158 | 64 | 251 | 9.0 | 13.0 | 0.00 | 0.00 | 0.00 | 33 | 1017.5 |
| 20260502215655 | 66 | 207 | 11.0 | 13.0 | 0.00 | 0.00 | 0.00 | 31 | 1017.7 |
| 20260502215151 | 65 | 254 | 11.0 | 17.0 | 0.00 | 0.00 | 0.00 | 30 | 1017.6 |
| 20260502214649 | 66 | 257 | 9.0 | 11.0 | 0.00 | 0.00 | 0.00 | 31 | 1017.6 |
| 20260502214146 | 65 | 309 | 11.0 | 17.0 | 0.00 | 0.00 | 0.00 | 31 | 1017.9 |
| 20260502213643 | 66 | 268 | 11.0 | 17.0 | 0.00 | 0.00 | 0.00 | 30 | 1018.0 |
| 20260502213140 | 66 | 147 | 8.0 | 10.0 | 0.00 | 0.00 | 0.00 | 30 | 1017.5 |
| 20260502212639 | 65 | 240 | 4.0 | 11.0 | 0.00 | 0.00 | 0.00 | 31 | 1018.2 |
| 20260502212137 | 64 | 178 | 9.0 | 10.0 | 0.00 | 0.00 | 0.00 | 33 | 1018.1 |
| 20260502211632 | 65 | 206 | 12.0 | 18.0 | 0.00 | 0.00 | 0.00 | 32 | 1018.1 |
| 20260502211130 | 64 | 288 | 4.0 | 9.0 | 0.00 | 0.00 | 0.00 | 32 | 1018.2 |
| 20260502210627 | 63 | 272 | 5.0 | 12.0 | 0.00 | 0.00 | 0.00 | 33 | 1018.2 |
| 20260502210124 | 64 | 109 | 1.0 | 6.0 | 0.00 | 0.00 | 0.00 | 33 | 1018.5 |
| 20260502205620 | 64 | 71 | 5.0 | 5.0 | 0.00 | 0.00 | 0.00 | 33 | 1018.7 |
| 20260502205117 | 65 | 8 | 3.0 | 7.0 | 0.00 | 0.00 | 0.00 | 32 | 1018.8 |
| 20260502204614 | 63 | 305 | 4.0 | 5.0 | 0.00 | 0.00 | 0.00 | 33 | 1018.8 |
| 20260502204112 | 63 | 281 | 5.0 | 6.0 | 0.00 | 0.00 | 0.00 | 33 | 1018.8 |
| 20260502203609 | 63 | 231 | 7.0 | 11.0 | 0.00 | 0.00 | 0.00 | 34 | 1018.8 |
| 20260502203106 | 64 | 228 | 15.0 | 15.0 | 0.00 | 0.00 | 0.00 | 32 | 1018.7 |
| 20260502202601 | 64 | 224 | 8.0 | 10.0 | 0.00 | 0.00 | 0.00 | 32 | 1018.8 |
| 20260502202100 | 63 | 219 | 6.0 | 8.0 | 0.00 | 0.00 | 0.00 | 32 | 1018.9 |
| 20260502201556 | 63 | 141 | 5.0 | 7.0 | 0.00 | 0.00 | 0.00 | 32 | 1018.7 |
| 20260502201052 | 64 | 130 | 4.0 | 6.0 | 0.00 | 0.00 | 0.00 | 31 | 1018.9 |
| 20260502200548 | 65 | 243 | 10.0 | 10.0 | 0.00 | 0.00 | 0.00 | 33 | 1019.0 |
| 20260502200046 | 65 | 245 | 11.0 | 16.0 | 0.00 | 0.00 | 0.00 | 34 | 1018.9 |
| 20260502195544 | 64 | 218 | 16.0 | 16.0 | 0.00 | 0.00 | 0.00 | 36 | 1019.1 |
| 20260502195039 | 65 | 238 | 12.0 | 21.0 | 0.00 | 0.00 | 0.00 | 34 | 1019.2 |
| 20260502194536 | 63 | 116 | 1.0 | 7.0 | 0.00 | 0.00 | 0.00 | 34 | 1019.2 |
| 20260502194032 | 63 | 220 | 7.0 | 17.0 | 0.00 | 0.00 | 0.00 | 34 | 1019.1 |
| 20260502193530 | 64 | 224 | 13.0 | 14.0 | 0.00 | 0.00 | 0.00 | 33 | 1019.1 |
| 20260502193027 | 62 | 186 | 7.0 | 13.0 | 0.00 | 0.00 | 0.00 | 34 | 1019.2 |
| 20260502192522 | 62 | 139 | 6.0 | 12.0 | 0.00 | 0.00 | 0.00 | 36 | 1019.2 |
| 20260502192020 | 62 | 192 | 8.0 | 13.0 | 0.00 | 0.00 | 0.00 | 37 | 1019.4 |
| 20260502191517 | 64 | 235 | 8.0 | 9.0 | 0.00 | 0.00 | 0.00 | 37 | 1019.2 |
| 20260502191015 | 63 | 337 | 7.0 | 8.0 | 0.00 | 0.00 | 0.00 | 35 | 1019.3 |
| 20260502190512 | 64 | 53 | 6.0 | 11.0 | 0.00 | 0.00 | 0.00 | 36 | 1019.2 |
| 20260502190008 | 61 | 96 | 5.0 | 9.0 | 0.00 | 0.00 | 0.00 | 38 | 1019.4 |
| 20260502185503 | 60 | 338 | 5.0 | 9.0 | 0.00 | 0.00 | 0.00 | 40 | 1019.4 |
| 20260502185001 | 62 | 273 | 8.0 | 9.0 | 0.00 | 0.00 | 0.00 | 39 | 1019.8 |
| 20260502184456 | 61 | 254 | 17.0 | 17.0 | 0.00 | 0.00 | 0.00 | 39 | 1019.6 |
| 20260502183953 | 62 | 344 | 3.0 | 8.0 | 0.00 | 0.00 | 0.00 | 40 | 1019.8 |
| 20260502183449 | 62 | 109 | 3.0 | 10.0 | 0.00 | 0.00 | 0.00 | 40 | 1019.8 |
| 20260502182944 | 60 | 10 | 2.0 | 6.0 | 0.00 | 0.00 | 0.00 | 41 | 1019.9 |
| 20260502182440 | 60 | 253 | 15.0 | 18.0 | 0.00 | 0.00 | 0.00 | 43 | 1020.1 |
| 20260502181936 | 62 | 212 | 9.0 | 15.0 | 0.00 | 0.00 | 0.00 | 38 | 1020.1 |
| 20260502181434 | 61 | 214 | 6.0 | 11.0 | 0.00 | 0.00 | 0.00 | 41 | 1020.1 |
| 20260502180933 | 61 | 226 | 15.0 | 15.0 | 0.00 | 0.00 | 0.00 | 43 | 1020.2 |
| 20260502180430 | 60 | 221 | 12.0 | 15.0 | 0.00 | 0.00 | 0.00 | 46 | 1020.2 |
| 20260502170349 | 58 | 261 | 6.0 | 11.0 | 0.00 | 0.00 | 0.00 | 51 | 1020.8 |
| 20260502164336 | 56 | 253 | 8.0 | 10.0 | 0.00 | 0.00 | 0.00 | 55 | 1020.8 |
| 20260502163832 | 56 | 267 | 10.0 | 15.0 | 0.00 | 0.00 | 0.00 | 54 | 1020.9 |
| 20260502163328 | 56 | 249 | 13.0 | 14.0 | 0.00 | 0.00 | 0.00 | 59 | 1020.6 |
| 20260502162826 | 55 | 249 | 7.0 | 11.0 | 0.00 | 0.00 | 0.00 | 56 | 1020.8 |
| 20260502162322 | 56 | 236 | 14.0 | 18.0 | 0.00 | 0.00 | 0.00 | 57 | 1021.0 |
| 20260502161819 | 55 | 259 | 6.0 | 17.0 | 0.00 | 0.00 | 0.00 | 58 | 1020.6 |
| 20260502161315 | 55 | 258 | 15.0 | 20.0 | 0.00 | 0.00 | 0.00 | 60 | 1020.8 |
| 20260502160813 | 55 | 250 | 17.0 | 21.0 | 0.00 | 0.00 | 0.00 | 60 | 1020.6 |
| 20260502160312 | 55 | 248 | 16.0 | 22.0 | 0.00 | 0.00 | 0.00 | 61 | 1020.7 |
| 20260502152241 | 53 | 252 | 14.0 | 22.0 | 0.00 | 0.00 | 0.00 | 65 | 1020.7 |
| 20260502151739 | 53 | 246 | 23.0 | 24.0 | 0.00 | 0.00 | 0.00 | 66 | 1020.7 |
| 20260502151235 | 53 | 250 | 19.0 | 22.0 | 0.00 | 0.00 | 0.00 | 68 | 1020.7 |
| 20260502150733 | 52 | 277 | 11.0 | 18.0 | 0.00 | 0.00 | 0.00 | 68 | 1020.8 |
| 20260502150230 | 52 | 242 | 16.0 | 19.0 | 0.00 | 0.00 | 0.00 | 67 | 1020.6 |
| 20260502130618 | 43 | 286 | 7.0 | 9.0 | 0.00 | 0.00 | 0.00 | 90 | 1020.1 |
| 20260502130116 | 42 | 282 | 7.0 | 10.0 | 0.00 | 0.00 | 0.00 | 90 | 1019.8 |
| 20260502123601 | 39 | 303 | 6.0 | 7.0 | 0.00 | 0.00 | 0.00 | 93 | 1020.0 |
| 20260502123058 | 39 | 307 | 5.0 | 7.0 | 0.00 | 0.00 | 0.00 | 93 | 1019.8 |
| 20260502122554 | 38 | 335 | 8.0 | 11.0 | 0.00 | 0.00 | 0.00 | 93 | 1019.7 |
| 20260502122052 | 38 | 329 | 7.0 | 10.0 | 0.00 | 0.00 | 0.00 | 93 | 1019.9 |
| 20260502121549 | 37 | 328 | 7.0 | 10.0 | 0.00 | 0.00 | 0.00 | 93 | 1019.4 |
| 20260502121047 | 38 | 338 | 7.0 | 10.0 | 0.00 | 0.00 | 0.00 | 92 | 1019.6 |
| 20260502120542 | 41 | 332 | 6.0 | 8.0 | 0.00 | 0.00 | 0.00 | 92 | 1019.6 |
| 20260502115538 | 40 | 287 | 5.0 | 9.0 | 0.00 | 0.00 | 0.00 | 93 | 1019.2 |
| 20260502115033 | 40 | 315 | 5.0 | 9.0 | 0.00 | 0.00 | 0.00 | 93 | 1019.4 |
| 20260502114530 | 40 | 304 | 8.0 | 9.0 | 0.00 | 0.00 | 0.00 | 93 | 1019.1 |
| 20260502114027 | 39 | 302 | 7.0 | 9.0 | 0.00 | 0.00 | 0.00 | 93 | 1019.4 |
| 20260502113525 | 39 | 300 | 4.0 | 8.0 | 0.00 | 0.00 | 0.00 | 93 | 1019.2 |
| 20260502113023 | 39 | 300 | 4.0 | 6.0 | 0.00 | 0.00 | 0.00 | 93 | 1019.3 |
| 20260502112521 | 40 | 309 | 5.0 | 7.0 | 0.00 | 0.00 | 0.00 | 93 | 1019.4 |
| 20260502112018 | 40 | 293 | 6.0 | 9.0 | 0.00 | 0.00 | 0.00 | 94 | 1019.3 |
| 20260502111515 | 40 | 291 | 8.0 | 9.0 | 0.00 | 0.00 | 0.00 | 94 | 1019.4 |
| 20260502111013 | 40 | 293 | 8.0 | 11.0 | 0.00 | 0.00 | 0.00 | 94 | 1019.4 |
| 20260502110510 | 40 | 306 | 11.0 | 12.0 | 0.00 | 0.00 | 0.00 | 94 | 1019.7 |
| 20260502110007 | 39 | 306 | 7.0 | 11.0 | 0.00 | 0.00 | 0.00 | 94 | 1019.6 |
| 20260502105504 | 39 | 299 | 6.0 | 10.0 | 0.00 | 0.00 | 0.00 | 94 | 1019.4 |
| 20260502105002 | 39 | 306 | 8.0 | 9.0 | 0.00 | 0.00 | 0.00 | 94 | 1019.6 |
| 20260502104459 | 39 | 322 | 11.0 | 11.0 | 0.00 | 0.00 | 0.00 | 94 | 1019.6 |
| 20260502103956 | 39 | 313 | 11.0 | 11.0 | 0.00 | 0.00 | 0.00 | 93 | 1019.6 |
| 20260502103454 | 40 | 307 | 7.0 | 9.0 | 0.00 | 0.00 | 0.00 | 93 | 1019.6 |
| 20260502102950 | 40 | 314 | 7.0 | 10.0 | 0.02 | 0.00 | 0.00 | 94 | 1019.4 |
| 20260502102448 | 39 | 323 | 6.0 | 10.0 | 0.02 | 0.00 | 0.00 | 93 | 1019.3 |
| 20260502101944 | 39 | 312 | 7.0 | 10.0 | 0.00 | 0.00 | 0.00 | 93 | 1019.8 |
| 20260502101443 | 39 | 324 | 7.0 | 9.0 | 0.00 | 0.00 | 0.00 | 93 | 1019.6 |
| 20260502100941 | 40 | 318 | 7.0 | 9.0 | 0.00 | 0.00 | 0.00 | 92 | 1019.4 |
| 20260502100439 | 41 | 320 | 7.0 | 8.0 | 0.00 | 0.00 | 0.00 | 92 | 1019.4 |
| 20260502091414 | 41 | 319 | 5.0 | 8.0 | 0.00 | 0.00 | 0.00 | 93 | 1019.3 |
| 20260502090911 | 41 | 320 | 8.0 | 9.0 | 0.00 | 0.00 | 0.00 | 93 | 1019.3 |
| 20260502090408 | 41 | 310 | 7.0 | 9.0 | 0.00 | 0.00 | 0.00 | 93 | 1019.2 |
| 20260502071302 | 39 | 340 | 4.0 | 4.0 | 0.00 | 0.00 | 0.00 | 93 | 1019.4 |
| 20260502070801 | 39 | 341 | 3.0 | 4.0 | 0.00 | 0.00 | 0.00 | 93 | 1019.3 |
| 20260502070258 | 39 | 346 | 3.0 | 5.0 | 0.00 | 0.00 | 0.00 | 93 | 1019.2 |
| 20260502065757 | 39 | 342 | 5.0 | 5.0 | 0.00 | 0.00 | 0.00 | 93 | 1019.4 |
| 20260502065254 | 39 | 343 | 3.0 | 4.0 | 0.00 | 0.00 | 0.00 | 92 | 1019.3 |
| 20260502064752 | 40 | 346 | 5.0 | 5.0 | 0.00 | 0.00 | 0.00 | 92 | 1019.4 |
| 20260502064250 | 40 | 345 | 5.0 | 7.0 | 0.00 | 0.00 | 0.00 | 92 | 1019.6 |
| 20260502063747 | 40 | 334 | 6.0 | 10.0 | 0.00 | 0.00 | 0.00 | 92 | 1019.4 |
| 20260502063245 | 40 | 335 | 8.0 | 11.0 | 0.00 | 0.00 | 0.00 | 92 | 1019.7 |
| 20260502062742 | 40 | 348 | 7.0 | 8.0 | 0.00 | 0.00 | 0.00 | 92 | 1019.6 |
| 20260502062239 | 40 | 336 | 5.0 | 7.0 | 0.00 | 0.00 | 0.00 | 92 | 1019.3 |
| 20260502061738 | 40 | 333 | 7.0 | 7.0 | 0.00 | 0.00 | 0.00 | 92 | 1019.6 |
| 20260502061235 | 40 | 337 | 5.0 | 7.0 | 0.00 | 0.00 | 0.00 | 92 | 1019.6 |
| 20260502060730 | 40 | 329 | 4.0 | 5.0 | 0.00 | 0.00 | 0.00 | 92 | 1019.6 |
| 20260502060226 | 40 | 336 | 5.0 | 6.0 | 0.00 | 0.00 | 0.00 | 92 | 1019.4 |
| 20260502055725 | 40 | 341 | 5.0 | 6.0 | 0.00 | 0.10 | 0.10 | 92 | 1019.6 |
| 20260502055222 | 40 | 326 | 5.0 | 6.0 | 0.00 | 0.10 | 0.10 | 92 | 1019.7 |
| 20260502054721 | 40 | 336 | 5.0 | 6.0 | 0.00 | 0.10 | 0.10 | 92 | 1019.2 |
| 20260502054218 | 40 | 339 | 4.0 | 4.0 | 0.00 | 0.10 | 0.10 | 92 | 1019.6 |
| 20260502053715 | 40 | 348 | 3.0 | 5.0 | 0.00 | 0.10 | 0.10 | 92 | 1019.1 |
| 20260502053212 | 40 | 342 | 3.0 | 4.0 | 0.00 | 0.10 | 0.10 | 92 | 1019.6 |
| 20260502052711 | 40 | 346 | 3.0 | 4.0 | 0.00 | 0.10 | 0.10 | 91 | 1019.4 |
| 20260502052209 | 40 | 340 | 5.0 | 5.0 | 0.00 | 0.10 | 0.10 | 91 | 1019.2 |
| 20260502051706 | 40 | 345 | 5.0 | 5.0 | 0.00 | 0.10 | 0.10 | 91 | 1019.4 |
| 20260502051204 | 40 | 340 | 4.0 | 5.0 | 0.00 | 0.10 | 0.10 | 90 | 1019.2 |
| 20260502050700 | 41 | 352 | 5.0 | 5.0 | 0.00 | 0.10 | 0.10 | 90 | 1019.4 |
| 20260502050157 | 41 | 338 | 3.0 | 5.0 | 0.00 | 0.10 | 0.10 | 90 | 1019.4 |
| 20260502045654 | 41 | 337 | 5.0 | 7.0 | 0.00 | 0.10 | 0.10 | 89 | 1019.6 |
| 20260502045151 | 42 | 342 | 7.0 | 7.0 | 0.00 | 0.10 | 0.10 | 89 | 1019.4 |
| 20260502044647 | 42 | 345 | 6.0 | 7.0 | 0.00 | 0.10 | 0.10 | 89 | 1019.2 |
| 20260502044143 | 42 | 334 | 5.0 | 7.0 | 0.00 | 0.10 | 0.10 | 89 | 1019.2 |
| 20260502043642 | 42 | 339 | 6.0 | 7.0 | 0.00 | 0.10 | 0.10 | 89 | 1019.4 |
| 20260502043139 | 42 | 337 | 5.0 | 7.0 | 0.00 | 0.10 | 0.10 | 89 | 1019.4 |
| 20260502042638 | 42 | 335 | 7.0 | 7.0 | 0.00 | 0.10 | 0.10 | 89 | 1019.3 |
| 20260502042135 | 42 | 327 | 5.0 | 6.0 | 0.00 | 0.10 | 0.10 | 89 | 1019.3 |
| 20260502041633 | 42 | 334 | 4.0 | 5.0 | 0.00 | 0.10 | 0.10 | 89 | 1019.1 |
| 20260502041130 | 43 | 329 | 3.0 | 4.0 | 0.00 | 0.10 | 0.10 | 89 | 1019.2 |
| 20260502040626 | 43 | 325 | 4.0 | 6.0 | 0.00 | 0.10 | 0.10 | 88 | 1019.1 |
| 20260502040124 | 43 | 323 | 5.0 | 5.0 | 0.00 | 0.10 | 0.10 | 89 | 1019.1 |
| 20260502035620 | 43 | 324 | 3.0 | 5.0 | 0.00 | 0.10 | 0.10 | 89 | 1019.2 |
| 20260502035117 | 42 | 321 | 3.0 | 5.0 | 0.00 | 0.10 | 0.10 | 90 | 1019.1 |
| 20260502034615 | 42 | 321 | 4.0 | 6.0 | 0.00 | 0.10 | 0.10 | 90 | 1019.2 |
| 20260502034113 | 42 | 332 | 3.0 | 5.0 | 0.00 | 0.10 | 0.10 | 90 | 1019.0 |
| 20260502033611 | 42 | 334 | 5.0 | 6.0 | 0.00 | 0.10 | 0.10 | 90 | 1019.1 |
| 20260502033108 | 42 | 332 | 5.0 | 7.0 | 0.00 | 0.10 | 0.10 | 90 | 1019.2 |
| 20260502032604 | 42 | 330 | 5.0 | 8.0 | 0.00 | 0.10 | 0.10 | 90 | 1019.0 |
| 20260502032100 | 42 | 334 | 5.0 | 5.0 | 0.00 | 0.10 | 0.10 | 90 | 1018.9 |
| 20260502031558 | 43 | 337 | 3.0 | 4.0 | 0.00 | 0.10 | 0.10 | 89 | 1019.2 |
| 20260502031055 | 43 | 348 | 4.0 | 5.0 | 0.00 | 0.10 | 0.10 | 89 | 1018.8 |
| 20260502030550 | 43 | 351 | 5.0 | 5.0 | 0.00 | 0.10 | 0.10 | 89 | 1018.9 |
| 20260502030047 | 43 | 342 | 3.0 | 6.0 | 0.00 | 0.10 | 0.10 | 89 | 1018.7 |
| 20260502025544 | 43 | 7 | 3.0 | 6.0 | 0.00 | 0.10 | 0.10 | 88 | 1018.5 |
| 20260502025042 | 43 | 7 | 3.0 | 5.0 | 0.00 | 0.10 | 0.10 | 88 | 1018.5 |
| 20260502024539 | 43 | 12 | 3.0 | 5.0 | 0.00 | 0.10 | 0.10 | 88 | 1018.3 |
| 20260502024037 | 44 | 11 | 3.0 | 4.0 | 0.00 | 0.10 | 0.10 | 86 | 1018.3 |
| 20260502023534 | 45 | 14 | 5.0 | 5.0 | 0.00 | 0.10 | 0.10 | 86 | 1018.3 |
| 20260502023032 | 45 | 10 | 4.0 | 6.0 | 0.00 | 0.10 | 0.10 | 85 | 1018.1 |
| 20260502022528 | 45 | 5 | 5.0 | 6.0 | 0.00 | 0.10 | 0.10 | 84 | 1018.1 |
| 20260502022026 | 46 | 14 | 7.0 | 7.0 | 0.00 | 0.10 | 0.10 | 83 | 1017.9 |
| 20260502021523 | 46 | 43 | 4.0 | 6.0 | 0.00 | 0.10 | 0.10 | 83 | 1017.6 |
| 20260502021020 | 46 | 23 | 5.0 | 5.0 | 0.00 | 0.10 | 0.10 | 82 | 1017.9 |
| 20260502020517 | 46 | 31 | 5.0 | 6.0 | 0.00 | 0.10 | 0.10 | 82 | 1017.7 |
| 20260502020014 | 46 | 41 | 4.0 | 5.0 | 0.00 | 0.10 | 0.10 | 81 | 1017.5 |
| 20260502015512 | 47 | 26 | 5.0 | 5.0 | 0.00 | 0.10 | 0.10 | 81 | 1017.4 |
| 20260502015008 | 47 | 54 | 6.0 | 6.0 | 0.00 | 0.10 | 0.10 | 81 | 1017.5 |
| 20260502014505 | 47 | 64 | 3.0 | 5.0 | 0.00 | 0.10 | 0.10 | 80 | 1017.3 |
| 20260502014002 | 47 | 60 | 5.0 | 5.0 | 0.00 | 0.10 | 0.10 | 79 | 1017.3 |
| 20260502013457 | 48 | 35 | 3.0 | 5.0 | 0.00 | 0.10 | 0.10 | 79 | 1017.3 |
| 20260502012954 | 48 | 43 | 5.0 | 6.0 | 0.00 | 0.10 | 0.10 | 78 | 1017.5 |
| 20260502012452 | 49 | 53 | 4.0 | 7.0 | 0.00 | 0.10 | 0.10 | 77 | 1017.3 |
| 20260502011949 | 49 | 43 | 4.0 | 7.0 | 0.00 | 0.10 | 0.10 | 76 | 1017.4 |
| 20260502011445 | 49 | 28 | 5.0 | 7.0 | 0.00 | 0.10 | 0.10 | 76 | 1017.4 |
| 20260502010942 | 50 | 48 | 9.0 | 11.0 | 0.00 | 0.10 | 0.10 | 74 | 1017.2 |
| 20260502010439 | 50 | 65 | 8.0 | 10.0 | 0.00 | 0.10 | 0.10 | 73 | 1017.2 |
| 20260502005935 | 50 | 53 | 12.0 | 31.0 | 0.00 | 0.10 | 0.10 | 73 | 1017.2 |
| 20260502005433 | 50 | 22 | 4.0 | 7.0 | 0.00 | 0.10 | 0.10 | 71 | 1017.0 |
| 20260502004931 | 50 | 49 | 7.0 | 8.0 | 0.00 | 0.10 | 0.10 | 71 | 1016.8 |